Regional Weather Roundup
Issued by NWS

Home | Current Version | Previous Version | Graphics & Text | Print | Product List | Glossary On
Versions: 1 2 3 4 5 6 7 8 9 10 11 12 13 14 15 16 17 18 19 20 21 22 23 24 25 26 27 28 29 30 31 32 33 34 35 36 37 38 39 40 41 42 43 44 45 46 47 48 49 50
000
ASUS45 KBOU 232010
RWRCO

WEATHER ROUNDUP FOR COLORADO
NATIONAL WEATHER SERVICE PUEBLO CO
200 PM MDT MON APR 23 2018

NOTE: "FAIR" INDICATES FEW OR NO CLOUDS BELOW 12000 FEET WITH NO
SIGNIFICANT WEATHER AND/OR OBSTRUCTIONS TO VISIBILITY.

COZ001>005-013-030-031-232100-
...NORTHWEST COLORADO...

CITY           SKY/WX    TMP DP  RH WIND       PRES   REMARKS
CRAIG          FAIR      68  35  29 W18       30.06F
HAYDEN         FAIR      63  33  32 W13G26    30.09F
MEEKER         FAIR      67  28  23 VRB3      30.06F
RABBIT EARS PA NOT AVBL
STEAMBOAT SPGS FAIR      64  32  30 W20G26    30.08F
WALDEN         PTSUNNY   59  21  23 W23G35    30.13F
$$

COZ006>008-011-232100-
...WEST CENTRAL VALLEYS...

CITY           SKY/WX    TMP DP  RH WIND       PRES   REMARKS
GRAND JUNCTION FAIR      76  28  17 VRB7G18   30.01F
MONTROSE       FAIR      72  18  13 NW12      30.07F
EAGLE          FAIR      70  23  17 W21G33    30.09F
RIFLE          FAIR      73  26  17 W16G24    30.03F
DELTA          NOT AVBL
NUCLA          FAIR      75  18  11 W17G25    30.11F
$$

COZ017>023-064>068-232100-
...SOUTHWEST COLORADO...

CITY           SKY/WX    TMP DP  RH WIND       PRES   REMARKS
DURANGO        FAIR      73  20  13 W16G30    30.13F
CORTEZ         FAIR      74  15  10 NW13G28   30.12F
PAGOSA SPRINGS CLOUDY    63  15  15 N7G16     30.20F
TELLURIDE      PTSUNNY   58  18  21 W12G20    30.28S
WOLF CREEK PAS PTSUNNY   41  21  45 SW14G21   30.46S
$$

COZ009-010-012-014-032>034-037-058>063-232100-
...CENTRAL COLORADO...

CITY           SKY/WX    TMP DP  RH WIND       PRES   REMARKS
ASPEN          FAIR      59  25  27 S17G25    30.17F
BUENA VISTA    FAIR      63  22  21 SW10G20   30.17R
COPPER MTN     NOT AVBL
BERTHOUD PASS  PTSUNNY   32  23  69 NW29G35   30.35S WCI  18
COTTONWOOD PAS PTSUNNY   57  23  26 N3G18     30.27S
GUNNISON       FAIR      63  19  18 SW14G20   30.16F
KREMMLING      DRIZZLE   61  30  31 W18G39    30.14R
LEADVILLE      PTSUNNY   47  27  45 N12G25    30.26R
MONARCH PASS   PTSUNNY   43  21  42 W33G46    30.46F
SALIDA         PTSUNNY   63  23  21 N12       30.22F
SUNLIGHT       CLOUDY    43  23  45 SW10G21   30.33F
WILKERSON PASS PTSUNNY   48  19  32 NW3       30.35F
$$

COZ069>075-232100-
...SAN LUIS VALLEY/SANGRE DE CRISTO MOUNTAINS...

CITY           SKY/WX    TMP DP  RH WIND       PRES   REMARKS
ALAMOSA        PTSUNNY   67  19  16 N9        30.16F
DEL NORTE      MOCLDY    63  20  19 SW5       30.18F
LA VETA PASS   PTSUNNY   52  21  30 SW9G17    30.41F
SAGUACHE       NOT AVBL
$$

COZ035-036-038>040-232100-
...NORTHERN COLORADO FRONT RANGE...

CITY           SKY/WX    TMP DP  RH WIND       PRES   REMARKS
DENVER INTL AP PTSUNNY   69  37  30 SE8       30.01F
DMNS CITY PARK NOT AVBL
AURORA         NOT AVBL
FRONT RANGE AP PTSUNNY   72  39  30 SE14G21   30.03F
ERIE MUNI ARPT FAIR      66  37  35 CALM      30.08R
BOULDER MUN AP FAIR      63  41  45 N3        30.05R
CENTENNIAL     FAIR      70  33  25 CALM      30.02F
BROOMFIELD     PTSUNNY   64  39  39 NW9       30.06R
LOVELAND       FAIR      63  42  46 CALM      30.03S
LONGMONT       FAIR      66  39  37 W7        30.07R
$$

COZ041-046-047-076>085-087-088-232100-
...PIKES PEAK/PALMER DIVIDE AND SOUTHERN FOOTHILLS...

CITY           SKY/WX    TMP DP  RH WIND       PRES   REMARKS
COLO. SPRINGS  PTSUNNY   65  37  35 SE16G22   30.08F
A. F. ACADEMY  NOT AVBL
SCHRIEVER AFB  NOT AVBL
CHEYENNE MTN   NOT AVBL
ELLICOTT         N/A    N/A N/A N/A SE14      30.08F
FALCON         PTSUNNY   63  32  31 SE6G21    30.12F
FORT CARSON    FAIR      66  38  36 S12       30.05F
LIMON          FAIR      65  38  36 SE18G24   30.07F
MONUMENT HILL  PTSUNNY   61  34  36 S14G20    30.11S
CANON CITY     PTSUNNY   73  37  27 E10G20    30.02F
WALSENBURG     FAIR      73  27  17 S8        30.07F
TRINIDAD       PTSUNNY   70  29  21 E5        30.06F
$$

COZ042>045-048>051-090-091-232100-
...NORTHEAST COLORADO...

CITY           SKY/WX    TMP DP  RH WIND       PRES   REMARKS
GREELEY ARPT   FAIR      69  42  37 E10       30.00F
AKRON          FAIR      63  43  48 SE20G28   30.06F
BURLINGTON     FAIR      65  42  43 S17G25    30.09F
WRAY           FAIR      68  37  32 SE15G21   30.08F
YUMA           NOT AVBL
STERLING       NOT AVBL
HOLYOKE        FAIR      68  39  34 S16G22    30.08F
FORT MORGAN    FAIR      71  35  27 SE14G24   30.02F
$$

COZ086-089-092>099-232100-
...SOUTHEAST COLORADO...

CITY           SKY/WX    TMP DP  RH WIND       PRES   REMARKS
PUEBLO         FAIR      70  37  29 SE15G22   30.02F
LA JUNTA       FAIR      70  39  32 MISG      30.03F
LAMAR          FAIR      71  40  32 SE13G24   30.03F
SPRINGFIELD      N/A     68  42  38 S20G28    30.07F
$$





USA.gov is the U.S. government's official web portal to all federal, state and local government web resources and services.